Weather History for Marshall, TX

Change the Weather History Date:

Sunday, August 4, 2013

  Actual Average (KGGG) Record (KGGG)
Temperature  
Mean Temperature 86 °F 84 °F  
Max Temperature 98 °F 94 °F 109 °F (2011)
Min Temperature 73 °F 73 °F 61 °F (1920)
Degree Days  
Heating Degree Days 0 0  
Month to date heating degree days 0  
Since 1 June heating degree days 0  
Since 1 July heating degree days 0  
Cooling Degree Days 20 19  
Month to date cooling degree days 76  
Year to date cooling degree days 1466  
Since 1 June cooling degree days 1087  
Growing Degree Days 36 (Base 50)    
Moisture  
Dew Point 69 °F    
Average Humidity 61    
Maximum Humidity 90    
Minimum Humidity 31    
Precipitation  
Precipitation 0.00 in 0.08 in 1.30 in (1904)
Month to date precipitation 0.32  
Year to date precipitation 27.95  
Snow  
Snow 0.00 in - - ()
Month to date snowfall  
Since 1 June snowfall  
Since 1 July snowfall  
Snow Depth -    
Sea Level Pressure  
Sea Level Pressure 30.05 in    
Wind  
Wind Speed 2 mph (SSW)    
Max Wind Speed 12 mph    
Max Gust Speed 16 mph    
Visibility 10 miles    
Events      
T = Trace of Precipitation, MM = Missing Value Source: NWS Daily Summary

Daily Weather History Graph

Daily Weather History Graph

Search for Another Location

Airport:

Trip Planner

Search our weather history database for the weather conditions in past years. The results will help you decide how hot, cold, wet, or windy it might be!

Date:

Astronomy

Aug. 04, 2013 Rise Set
Actual Time 6:33 AM CDT 8:12 PM CDT
Civil Twilight 6:07 AM CDT 8:38 PM CDT
Nautical Twilight 5:35 AM CDT 9:10 PM CDT
Astronomical Twilight 5:01 AM CDT 9:44 PM CDT
Moon 4:36 AM CDT (8/4) 6:36 PM CDT (8/4)
Length of Visible Light 14h 31m
Length of Day
13h 38m
Waning Crescent, 4% of the Moon is Illuminated
Aug 4
Waning Crescent
Aug 6
New
Aug 14
First Quarter
Aug 20
Full
Aug 28
Last Quarter

Hourly Weather History & Observations

Time (CDT) Temp. Heat Index Dew Point Humidity Pressure Visibility Wind Dir Wind Speed Gust Speed Precip Events Conditions
12:15 AM 78.1 °F - 71.6 °F 80% 30.06 in 10.0 mi Calm Calm - N/A   Clear
12:35 AM 78.1 °F - 72.0 °F 81% 30.07 in 10.0 mi Calm Calm - N/A   Clear
12:55 AM 77.0 °F - 70.9 °F 81% 30.06 in 10.0 mi Calm Calm - N/A   Clear
1:15 AM 77.0 °F - 71.2 °F 82% 30.06 in 10.0 mi Calm Calm - N/A   Clear
1:35 AM 77.0 °F - 71.6 °F 83% 30.06 in 10.0 mi Calm Calm - N/A   Clear
1:55 AM 77.0 °F - 71.4 °F 83% 30.06 in 10.0 mi Calm Calm - N/A   Clear
2:15 AM 77.0 °F - 71.6 °F 83% 30.06 in 10.0 mi Calm Calm - N/A   Clear
2:35 AM 76.1 °F - 71.2 °F 85% 30.05 in 10.0 mi Calm Calm - N/A   Clear
2:55 AM 76.3 °F - 71.8 °F 86% 30.05 in 10.0 mi Calm Calm - N/A   Clear
3:15 AM 75.6 °F - 71.4 °F 87% 30.05 in 10.0 mi Calm Calm - N/A   Clear
3:35 AM 75.6 °F - 71.1 °F 86% 30.05 in 10.0 mi Calm Calm - N/A   Clear
3:55 AM 75.6 °F - 71.2 °F 86% 30.05 in 10.0 mi Calm Calm - N/A   Clear
4:15 AM 75.6 °F - 71.6 °F 87% 30.04 in 10.0 mi Calm Calm - N/A   Clear
4:35 AM 75.6 °F - 71.8 °F 88% 30.05 in 10.0 mi South 3.5 mph - N/A   Clear
4:55 AM 75.6 °F - 71.8 °F 88% 30.05 in 10.0 mi South 3.5 mph - N/A   Clear
5:15 AM 75.6 °F - 71.8 °F 88% 30.06 in 10.0 mi South 3.5 mph - N/A   Clear
5:35 AM 75.6 °F - 72.0 °F 89% 30.06 in 10.0 mi Calm Calm - N/A   Clear
5:55 AM 75.6 °F - 71.8 °F 88% 30.07 in 10.0 mi Calm Calm - N/A   Clear
6:15 AM 75.6 °F - 71.8 °F 88% 30.08 in 10.0 mi Calm Calm - N/A   Clear
6:35 AM 73.0 °F - 69.8 °F 90% 30.09 in 7.0 mi Calm Calm - N/A   Clear
6:55 AM 73.0 °F - 70.0 °F 90% 30.09 in 7.0 mi Calm Calm - N/A   Clear
7:15 AM 75.2 °F - 72.1 °F 90% 30.10 in 7.0 mi Calm Calm - N/A   Clear
7:35 AM 75.6 °F - 72.1 °F 89% 30.10 in 7.0 mi South 3.5 mph - N/A   Clear
7:55 AM 75.9 °F - 72.0 °F 87% 30.11 in 10.0 mi South 3.5 mph - N/A   Clear
8:15 AM 78.1 °F - 72.7 °F 83% 30.11 in 10.0 mi South 5.8 mph - N/A   Clear
8:35 AM 79.3 °F - 72.5 °F 79% 30.11 in 10.0 mi SSW 6.9 mph - N/A   Clear
8:55 AM 83.3 °F 90.2 °F 74.3 °F 74% 30.12 in 10.0 mi SW 9.2 mph - N/A   Clear
9:15 AM 85.6 °F 94.2 °F 75.0 °F 70% 30.12 in 10.0 mi SW 11.5 mph 16.1 mph N/A   Clear
9:35 AM 85.6 °F 92.2 °F 72.5 °F 65% 30.12 in 10.0 mi WSW 4.6 mph - N/A   Clear
9:55 AM 85.6 °F 90.8 °F 70.9 °F 61% 30.12 in 10.0 mi West 6.9 mph - N/A   Clear
10:15 AM 86.7 °F 92.1 °F 70.9 °F 59% 30.12 in 10.0 mi WSW 4.6 mph - N/A   Clear
10:35 AM 88.2 °F 94.1 °F 71.2 °F 57% 30.12 in 10.0 mi SW 4.6 mph - N/A   Clear
10:55 AM 89.4 °F 95.3 °F 70.9 °F 54% 30.11 in 10.0 mi SW 4.6 mph - N/A   Clear
11:15 AM 90.7 °F 96.9 °F 71.1 °F 52% 30.11 in 10.0 mi WSW 5.8 mph - N/A   Scattered Clouds
11:35 AM 90.7 °F 94.5 °F 67.6 °F 47% 30.10 in 10.0 mi WSW 4.6 mph - N/A   Clear
11:55 AM 90.7 °F 93.6 °F 66.6 °F 45% 30.10 in 10.0 mi SSW 4.6 mph - N/A   Clear
12:15 PM 93.2 °F 95.3 °F 64.8 °F 39% 30.09 in 10.0 mi SW 4.6 mph - N/A   Clear
12:35 PM 90.9 °F 93.5 °F 66.2 °F 44% 30.08 in 10.0 mi Calm Calm - N/A   Clear
12:55 PM 93.2 °F 96.7 °F 67.1 °F 42% 30.07 in 10.0 mi WNW 5.8 mph - N/A   Scattered Clouds
1:15 PM 93.2 °F 95.3 °F 65.1 °F 39% 30.07 in 10.0 mi WSW 5.8 mph - N/A   Mostly Cloudy
1:35 PM 93.2 °F 95.3 °F 64.8 °F 39% 30.06 in 10.0 mi SW 6.9 mph - N/A   Scattered Clouds
1:55 PM 95.0 °F 97.0 °F 64.0 °F 36% 30.05 in 10.0 mi ESE 3.5 mph - N/A   Clear
2:15 PM 95.9 °F 97.5 °F 63.0 °F 34% 30.04 in 10.0 mi SSW 6.9 mph - N/A   Clear
2:35 PM 95.9 °F 97.0 °F 62.4 °F 33% 30.04 in 10.0 mi South 4.6 mph - N/A   Scattered Clouds
2:55 PM 95.9 °F 97.5 °F 63.1 °F 34% 30.03 in 10.0 mi SW 8.1 mph - N/A   Scattered Clouds
3:15 PM 96.3 °F 97.2 °F 61.9 °F 32% 30.03 in 10.0 mi SW 4.6 mph - N/A   Scattered Clouds
3:35 PM 97.0 °F 97.8 °F 62.1 °F 31% 30.01 in 10.0 mi Calm Calm - N/A   Scattered Clouds
3:55 PM 98.2 °F 99.9 °F 62.8 °F 31% 30.01 in 10.0 mi South 10.4 mph - N/A   Mostly Cloudy
4:15 PM 97.0 °F 98.3 °F 62.4 °F 32% 30.00 in 10.0 mi SSW 6.9 mph - N/A   Scattered Clouds
4:35 PM 97.0 °F 97.8 °F 62.1 °F 31% 29.99 in 10.0 mi SSW 6.9 mph - N/A   Clear
4:55 PM 97.0 °F 97.8 °F 61.3 °F 31% 29.99 in 10.0 mi West 4.6 mph - N/A   Clear
5:15 PM 97.2 °F 98.1 °F 61.5 °F 31% 29.98 in 10.0 mi South 6.9 mph - N/A   Mostly Cloudy
5:35 PM 96.6 °F 97.3 °F 61.5 °F 31% 29.98 in 10.0 mi SSW 4.6 mph - N/A   Scattered Clouds
5:55 PM 95.9 °F 98.5 °F 65.1 °F 36% 29.98 in 10.0 mi SE 3.5 mph - N/A   Scattered Clouds
6:15 PM 95.9 °F 99.0 °F 66.0 °F 37% 29.98 in 10.0 mi Calm Calm - N/A   Scattered Clouds
6:35 PM 93.7 °F 96.2 °F 65.3 °F 39% 29.98 in 10.0 mi SE 4.6 mph - N/A   Clear
6:55 PM 93.2 °F 95.8 °F 65.8 °F 40% 29.98 in 10.0 mi Calm Calm - N/A   Mostly Cloudy
7:15 PM 93.2 °F 96.2 °F 66.0 °F 41% 29.98 in 10.0 mi ESE 3.5 mph - N/A   Mostly Cloudy
7:35 PM 93.2 °F 96.7 °F 67.1 °F 42% 29.99 in 10.0 mi SE 6.9 mph - N/A   Scattered Clouds
7:55 PM 92.5 °F 97.4 °F 69.1 °F 46% 29.99 in 10.0 mi ESE 5.8 mph - N/A   Scattered Clouds
8:15 PM 90.7 °F 96.4 °F 70.2 °F 51% 30.00 in 10.0 mi ESE 3.5 mph - N/A   Scattered Clouds
8:35 PM 90.7 °F 97.4 °F 71.6 °F 53% 29.99 in 10.0 mi ESE 3.5 mph - N/A   Clear
8:55 PM 88.3 °F 93.6 °F 70.2 °F 55% 30.00 in 10.0 mi Calm Calm - N/A   Clear
9:15 PM 88.2 °F 93.7 °F 70.7 °F 56% 30.00 in 10.0 mi Calm Calm - N/A   Clear
9:35 PM 86.5 °F 91.0 °F 69.4 °F 57% 30.01 in 10.0 mi Calm Calm - N/A   Clear
9:55 PM 85.6 °F 89.7 °F 69.4 °F 58% 30.02 in 10.0 mi Calm Calm - N/A   Clear
10:15 PM 85.6 °F 90.1 °F 69.6 °F 59% 30.02 in 10.0 mi Calm Calm - N/A   Clear
10:35 PM 85.6 °F 90.4 °F 70.3 °F 60% 30.03 in 10.0 mi Calm Calm - N/A   Clear
10:55 PM 83.3 °F 87.4 °F 70.2 °F 64% 30.04 in 10.0 mi Calm Calm - N/A   Clear
11:15 PM 81.1 °F 84.5 °F 69.6 °F 68% 30.03 in 10.0 mi Calm Calm - N/A   Clear
11:35 PM 81.0 °F 84.2 °F 69.4 °F 68% 30.04 in 10.0 mi Calm Calm - N/A   Clear
11:55 PM 83.3 °F 87.9 °F 70.7 °F 66% 30.04 in 10.0 mi Calm Calm - N/A   Clear